• In Russia
  • List of Countries
  • For 7 days
  • Water Temperature
  • Weather Map
  • Weather Widgets
  • user-avatar
    Login

    Hourly Weather Adamovo

    Today, 27 February, Thursday

    Time Temperature Precipitation Wind Pressure Humidity
    00:00 +3°C° 0.7 mm 2 mps 729 mmHg 89%
    01:00 +3°C° 0.7 mm 2 mps 729 mmHg 93%
    02:00 +3°C° 0 mm 2 mps 729 mmHg 96%
    03:00 +2°C° 0.4 mm 2 mps 729 mmHg 96%
    04:00 +2°C° 0.4 mm 2 mps 729 mmHg 96%
    05:00 +2°C° 0.4 mm 2 mps 729 mmHg 95%
    06:00 +1°C° 0.3 mm 3 mps 730 mmHg 95%
    07:00 0°C° 0.3 mm 3 mps 730 mmHg 94%
    08:00 -1°C° 0.3 mm 4 mps 730 mmHg 93%
    09:00 -1°C° 0 mm 4 mps 731 mmHg 88%
    10:00 0°C° 0 mm 5 mps 731 mmHg 83%
    11:00 0°C° 0 mm 5 mps 731 mmHg 77%
    12:00 +1°C° 0.1 mm 5 mps 731 mmHg 74%
    13:00 +1°C° 0.1 mm 5 mps 732 mmHg 71%
    14:00 +1°C° 0.1 mm 5 mps 732 mmHg 68%
    15:00 +1°C° 0.1 mm 5 mps 732 mmHg 68%
    16:00 +1°C° 0.1 mm 5 mps 732 mmHg 68%
    17:00 0°C° 0.1 mm 5 mps 732 mmHg 68%
    18:00 -1°C° 0 mm 4 mps 732 mmHg 72%
    19:00 -1°C° 0 mm 4 mps 732 mmHg 76%
    20:00 -2°C° 0 mm 4 mps 732 mmHg 80%
    21:00 -3°C° 0 mm 4 mps 732 mmHg 79%
    22:00 -3°C° 0 mm 4 mps 732 mmHg 78%
    23:00 -3°C° 0 mm 4 mps 732 mmHg 77%

    Tomorrow, 28 February, Friday

    Time Temperature Precipitation Wind Pressure Humidity
    00:00 -3°C° 0 mm 4 mps 733 mmHg 77%
    01:00 -3°C° 0 mm 4 mps 733 mmHg 77%
    02:00 -3°C° 0 mm 4 mps 733 mmHg 77%
    03:00 -3°C° 0 mm 4 mps 733 mmHg 78%
    04:00 -4°C° 0 mm 5 mps 733 mmHg 78%
    05:00 -4°C° 0 mm 5 mps 734 mmHg 78%
    06:00 -4°C° 0 mm 5 mps 734 mmHg 78%
    07:00 -4°C° 0 mm 5 mps 734 mmHg 78%
    08:00 -4°C° 0 mm 5 mps 734 mmHg 79%
    09:00 -2°C° 0 mm 5 mps 735 mmHg 75%
    10:00 -1°C° 0 mm 5 mps 735 mmHg 72%
    11:00 -2°C° 0 mm 6 mps 736 mmHg 68%
    12:00 -1°C° 0 mm 6 mps 736 mmHg 66%
    13:00 -1°C° 0 mm 6 mps 736 mmHg 64%
    14:00 +1°C° 0 mm 6 mps 737 mmHg 62%
    15:00 0°C° 0 mm 5 mps 737 mmHg 63%
    16:00 0°C° 0 mm 5 mps 738 mmHg 65%
    17:00 0°C° 0 mm 4 mps 738 mmHg 66%
    18:00 -1°C° 0 mm 4 mps 738 mmHg 70%
    19:00 -1°C° 0 mm 4 mps 739 mmHg 73%
    20:00 -2°C° 0 mm 4 mps 739 mmHg 76%
    21:00 -3°C° 0 mm 4 mps 740 mmHg 79%
    22:00 -2°C° 0 mm 3 mps 740 mmHg 81%
    23:00 -2°C° 0 mm 3 mps 740 mmHg 83%

    Day after tomorrow, 29 February, Saturday

    Time Temperature Precipitation Wind Pressure Humidity
    00:00 -2°C° 0 mm 3 mps 741 mmHg 84%
    01:00 -2°C° 0 mm 3 mps 741 mmHg 85%
    02:00 -4°C° 0 mm 3 mps 741 mmHg 86%
    03:00 -2°C° 0.1 mm 3 mps 741 mmHg 89%
    04:00 -2°C° 0.1 mm 3 mps 741 mmHg 91%
    05:00 -2°C° 0.1 mm 3 mps 741 mmHg 94%
    06:00 -1°C° 0.1 mm 3 mps 741 mmHg 93%
    07:00 -1°C° 0.1 mm 3 mps 742 mmHg 91%
    08:00 -1°C° 0.1 mm 3 mps 742 mmHg 90%
    09:00 0°C° 0 mm 3 mps 742 mmHg 88%
    10:00 0°C° 0 mm 3 mps 742 mmHg 86%
    11:00 0°C° 0 mm 4 mps 742 mmHg 84%
    12:00 0°C° 0 mm 4 mps 742 mmHg 79%
    13:00 0°C° 0 mm 4 mps 742 mmHg 75%
    14:00 +1°C° 0 mm 4 mps 743 mmHg 71%
    15:00 +1°C° 0 mm 3 mps 743 mmHg 72%
    16:00 +1°C° 0 mm 3 mps 742 mmHg 74%
    17:00 +1°C° 0 mm 2 mps 742 mmHg 76%
    18:00 0°C° 0 mm 3 mps 742 mmHg 79%
    19:00 -1°C° 0 mm 3 mps 742 mmHg 83%
    20:00 -2°C° 0 mm 3 mps 742 mmHg 87%
    21:00 -2°C° 0 mm 4 mps 742 mmHg 86%
    22:00 -2°C° 0 mm 4 mps 742 mmHg 85%
    23:00 -2°C° 0 mm 5 mps 742 mmHg 84%

    1 March, Sunday

    Time Temperature Precipitation Wind Pressure Humidity
    00:00 -2°C° 0 mm 5 mps 741 mmHg 82%
    01:00 -2°C° 0 mm 6 mps 741 mmHg 80%
    02:00 -2°C° 0 mm 6 mps 741 mmHg 78%
    03:00 -2°C° 0 mm 6 mps 740 mmHg 76%
    04:00 -2°C° 0 mm 7 mps 740 mmHg 75%
    05:00 -2°C° 0 mm 7 mps 740 mmHg 73%
    06:00 -2°C° 0.1 mm 7 mps 739 mmHg 78%
    07:00 -2°C° 0.1 mm 7 mps 739 mmHg 82%
    08:00 -2°C° 0.1 mm 7 mps 739 mmHg 87%
    09:00 -1°C° 0 mm 7 mps 739 mmHg 79%
    10:00 0°C° 0 mm 7 mps 738 mmHg 72%
    11:00 0°C° 0 mm 7 mps 738 mmHg 65%
    12:00 0°C° 0.4 mm 7 mps 738 mmHg 74%
    13:00 -1°C° 0.4 mm 7 mps 738 mmHg 84%
    14:00 -1°C° 0.4 mm 7 mps 738 mmHg 94%
    15:00 -1°C° 0.8 mm 7 mps 737 mmHg 95%
    16:00 -1°C° 0.8 mm 6 mps 737 mmHg 96%
    17:00 -1°C° 0.8 mm 6 mps 737 mmHg 97%
    18:00 0°C° 0.3 mm 5 mps 737 mmHg 96%
    19:00 +1°C° 0.3 mm 5 mps 737 mmHg 96%
    20:00 +1°C° 0.3 mm 4 mps 737 mmHg 96%
    21:00 +1°C° 0 mm 4 mps 737 mmHg 95%
    22:00 +1°C° 0 mm 4 mps 737 mmHg 94%
    23:00 +1°C° 0 mm 5 mps 737 mmHg 94%

    2 March, Monday

    Time Temperature Precipitation Wind Pressure Humidity
    00:00 +1°C° 0 mm 5 mps 738 mmHg 94%
    01:00 +1°C° 0 mm 5 mps 738 mmHg 94%
    02:00 0°C° 0 mm 4 mps 738 mmHg 94%
    03:00 0°C° 0 mm 4 mps 738 mmHg 95%
    04:00 0°C° 0 mm 4 mps 737 mmHg 95%
    05:00 -1°C° 0 mm 4 mps 737 mmHg 95%
    06:00 -1°C° 0 mm 4 mps 737 mmHg 94%
    07:00 -1°C° 0 mm 4 mps 737 mmHg 93%
    08:00 0°C° 0 mm 4 mps 737 mmHg 92%
    09:00 +1°C° 0 mm 4 mps 737 mmHg 88%
    10:00 +2°C° 0 mm 5 mps 737 mmHg 84%
    11:00 +3°C° 0 mm 5 mps 736 mmHg 80%
    12:00 +3°C° 0.6 mm 5 mps 736 mmHg 84%
    13:00 +2°C° 0.6 mm 5 mps 735 mmHg 88%
    14:00 +2°C° 0.6 mm 5 mps 735 mmHg 92%
    15:00 +2°C° 0.6 mm 6 mps 734 mmHg 90%
    16:00 +2°C° 0.6 mm 6 mps 734 mmHg 89%
    17:00 +3°C° 0.6 mm 6 mps 733 mmHg 87%
    18:00 +3°C° 0.5 mm 6 mps 733 mmHg 87%
    19:00 +3°C° 0.5 mm 6 mps 732 mmHg 88%
    20:00 +3°C° 0.5 mm 6 mps 732 mmHg 88%
    21:00 +3°C° 0.4 mm 5 mps 732 mmHg 90%
    22:00 +3°C° 0.4 mm 5 mps 732 mmHg 91%
    23:00 +4°C° 0.4 mm 4 mps 731 mmHg 93%

    3 March, Tuesday

    Time Temperature Precipitation Wind Pressure Humidity
    00:00 +4°C° 0.9 mm 4 mps 732 mmHg 94%
    01:00 +4°C° 0.9 mm 4 mps 732 mmHg 95%
    02:00 +4°C° 0.9 mm 4 mps 732 mmHg 97%
    03:00 +4°C° 0.1 mm 4 mps 733 mmHg 93%
    04:00 +3°C° 0.1 mm 5 mps 733 mmHg 90%
    05:00 +2°C° 0.1 mm 5 mps 734 mmHg 87%
    06:00 +2°C° 0 mm 5 mps 735 mmHg 89%
    07:00 +1°C° 0 mm 4 mps 736 mmHg 90%
    08:00 +1°C° 0 mm 3 mps 737 mmHg 91%
    09:00 +1°C° 0 mm 4 mps 738 mmHg 84%
    10:00 +3°C° 0 mm 4 mps 738 mmHg 77%
    11:00 +5°C° 0 mm 4 mps 739 mmHg 69%
    12:00 +5°C° 0 mm 5 mps 739 mmHg 66%
    13:00 +6°C° 0 mm 5 mps 740 mmHg 62%
    14:00 +7°C° 0 mm 5 mps 740 mmHg 58%
    15:00 +7°C° 0 mm 4 mps 740 mmHg 61%
    16:00 +7°C° 0 mm 3 mps 740 mmHg 64%
    17:00 +7°C° 0 mm 2 mps 740 mmHg 68%
    18:00 +6°C° 0 mm 2 mps 741 mmHg 71%
    19:00 +5°C° 0 mm 2 mps 741 mmHg 75%
    20:00 +4°C° 0 mm 2 mps 741 mmHg 78%
    21:00 +4°C° 0 mm 2 mps 741 mmHg 79%
    22:00 +4°C° 0 mm 2 mps 742 mmHg 80%
    23:00 +4°C° 0 mm 2 mps 742 mmHg 81%
    Show more